Theta_e
345 344 342 342 340 337 339 338 329 334 337 334 334 333 332 331 331 331 330 330 330 329 328 328 327 327 327 327 328 329 328 325 324 322 320 320 320 320 320 325 326 326 326
335 330 333 340 340 336 330 334 334 336 335 333 334 333 331 332 332 331 329 328 324 324 323 324 323 321 321 322 323 324 322 324 320 320 320 320 320 320 322 323 324 325 325
332 332 331 336 337 333 333 334 336 334 331 329 327 325 324 323 323 322 321 321 321 319 319 318 317 321 321 320 320 322 323 322 323 322 320 320 321 320 320 320 321 321 322
335 337 337 335 334 335 335 335 332 328 323 319 317 318 319 319 318 318 320 320 318 318 318 316 315 316 317 318 318 319 319 320 321 322 321 321 320 320 319 319 319 319 320
336 339 338 336 334 329 327 328 325 322 319 317 315 314 314 315 312 312 312 312 313 314 315 313 312 314 315 316 318 317 318 318 320 319 319 319 319 318 318 319 319 319 319
338 337 333 327 326 327 326 324 322 319 315 309 310 311 316 313 314 314 316 315 314 313 313 313 314 313 313 314 312 314 317 316 317 318 318 318 319 318 318 318 317 316 316
332 327 324 321 321 322 322 319 317 316 314 310 311 312 315 314 315 315 313 313 315 313 312 314 314 313 312 312 312 312 312 313 315 314 316 316 316 317 315 317 317 317 317
323 321 320 319 320 319 317 316 316 316 315 314 313 316 315 314 315 313 313 312 311 311 311 312 312 311 312 312 313 312 312 312 314 315 314 314 314 314 314 314 313 315 316
319 318 317 317 317 316 314 315 316 315 316 315 316 313 313 314 313 312 311 310 312 312 311 311 311 312 312 312 311 310 310 309 309 310 313 314 314 314 315 314 314 314 314
316 315 314 314 314 313 313 315 314 317 316 314 313 313 311 311 311 311 312 311 312 311 311 311 312 311 311 311 310 309 308 309 308 307 308 311 313 313 313 314 313 312 313
316 315 314 314 313 314 314 316 317 316 314 314 313 312 311 311 310 310 311 311 310 310 310 310 309 309 310 310 309 308 308 309 308 308 308 310 311 313 314 314 314 313 313
314 314 313 313 314 314 315 316 314 313 312 312 310 310 310 310 310 311 311 310 310 308 308 308 308 308 308 308 308 309 309 308 308 306 308 309 310 311 311 312 313 314 313
314 314 313 315 315 314 315 314 313 312 311 310 310 309 310 310 311 310 310 309 308 307 306 306 306 306 306 307 308 309 311 309 309 308 308 308 309 309 310 313 312 312 311
316 317 315 315 315 314 314 312 312 311 310 311 310 310 310 310 310 310 309 308 307 306 306 306 306 306 306 306 308 310 309 309 310 309 309 310 310 310 311 312 311 311 311
315 314 314 314 313 312 311 312 312 311 311 310 310 309 310 310 309 307 308 308 306 306 306 306 306 306 306 306 307 309 309 309 309 309 309 309 311 311 311 310 312 311 311
314 313 312 311 311 311 311 311 311 310 310 309 309 308 308 307 307 308 308 308 307 306 306 306 307 307 306 306 306 306 306 307 306 306 306 308 310 310 310 310 311 311 310
314 313 312 311 311 310 310 310 309 308 308 308 308 307 306 306 307 307 307 307 306 303 303 305 305 306 307 307 306 306 307 307 306 307 306 308 308 308 308 308 311 310 309
312 312 311 310 310 310 309 308 307 306 306 306 307 306 306 306 306 307 307 303 302 302 302 302 302 302 303 303 305 306 306 307 307 306 307 306 307 307 306 308 308 309 309
313 312 310 309 308 307 307 306 306 306 306 306 306 306 306 305 304 303 302 301 302 301 302 302 302 302 302 302 302 303 304 305 303 304 305 308 306 307 307 308 308 308 308
312 311 309 307 306 306 306 306 305 305 305 305 306 306 306 305 304 303 301 302 301 301 301 301 300 301 301 301 301 301 301 302 302 302 304 305 308 308 308 307 307 307 308
310 311 308 306 306 306 305 305 304 304 305 305 306 306 306 306 305 303 301 302 301 300 299 298 298 299 300 300 300 300 300 300 300 300 301 303 305 307 307 308 308 308 307
310 310 308 307 307 306 305 304 304 304 305 306 306 306 306 305 303 302 302 301 301 300 298 297 298 298 298 298 299 300 299 299 299 299 300 300 301 303 307 306 306 306 305
311 310 309 308 307 307 306 306 305 305 305 305 306 307 306 304 303 302 302 301 300 299 297 297 298 298 298 298 299 300 301 301 300 300 300 299 300 300 301 304 305 304 304
310 310 309 309 308 308 308 307 307 307 307 307 306 306 304 304 303 302 301 301 300 299 298 297 298 298 298 298 298 300 300 301 301 302 301 301 301 300 300 300 302 303 303
309 310 309 309 307 308 307 307 306 305 305 305 305 304 303 302 302 302 301 300 299 298 297 296 296 296 298 298 297 299 300 301 302 302 302 302 302 301 299 300 300 300 301
306 307 304 302 302 304 302 301 301 302 304 303 302 301 300 301 301 301 301 300 299 298 296 295 294 295 295 297 297 298 301 301 302 302 302 302 303 303 300 300 301 301 301
Wind_Speed
3 4 4 6 12 13 21 9 6 2 5 6 8 7 7 9 12 12 14 15 16 17 18 17 17 17 19 22 21 23 24 21 10 11 5 10 13 15 18 24 32 39 42
2 10 12 12 5 9 5 2 2 4 4 4 5 5 6 7 9 11 11 12 12 12 12 12 13 14 15 14 12 9 9 9 11 7 8 15 13 15 13 15 19 26 34
4 4 8 3 5 7 4 2 2 5 2 4 6 9 11 12 10 11 11 11 10 12 14 15 16 15 16 15 15 13 14 16 15 15 13 16 17 21 21 17 14 17 19
5 7 8 8 8 6 4 8 7 3 7 9 11 11 11 11 12 13 12 12 13 13 14 16 17 17 17 17 18 16 13 13 13 17 16 16 21 23 23 23 24 29 28
7 7 9 10 11 13 10 9 7 8 11 11 12 14 13 8 11 13 13 14 15 15 14 15 16 19 20 18 17 17 16 13 11 10 12 13 13 14 16 23 22 24 23
10 13 18 15 14 12 9 7 5 6 10 15 15 12 9 12 14 15 16 18 18 17 18 18 18 17 16 13 14 14 15 16 15 15 17 14 18 17 20 22 23 16 7
13 13 14 11 10 9 9 7 3 5 7 6 7 9 9 14 14 16 19 22 17 16 20 18 15 14 12 15 14 13 14 15 16 17 16 19 18 18 15 18 18 18 19
15 14 12 12 13 10 6 3 1 6 9 8 9 9 13 16 13 16 16 19 19 21 25 22 19 18 16 9 11 12 13 12 12 16 18 17 17 17 17 16 18 23 25
12 9 8 7 7 4 2 4 9 12 12 9 7 12 16 19 15 18 19 22 24 24 29 24 20 17 19 13 13 13 13 14 14 15 15 18 19 17 18 16 15 15 11
9 8 7 4 2 2 7 7 11 11 7 4 7 9 12 15 17 30 24 22 23 21 19 19 17 19 22 18 20 19 20 24 23 25 23 19 19 21 19 19 18 13 9
5 3 2 2 5 6 7 9 5 2 4 3 8 9 14 19 16 24 21 12 13 17 19 23 25 24 23 26 30 33 35 35 32 30 27 24 21 21 22 24 26 21 16
2 3 6 8 9 7 5 2 1 1 3 7 13 20 22 19 20 15 11 15 17 20 23 25 25 23 23 23 22 23 24 23 22 22 15 15 14 16 20 23 21 25 26
7 7 9 8 4 2 5 2 4 7 12 14 13 14 17 17 14 11 14 17 18 19 19 20 23 22 19 19 18 19 19 15 11 10 13 15 17 18 15 19 19 19 19
3 5 7 5 6 7 5 10 9 10 11 12 12 11 13 10 8 13 16 16 15 17 14 17 22 26 19 22 17 17 10 3 4 9 13 16 14 14 16 17 16 15 16
10 7 8 7 4 6 8 10 8 7 7 8 8 8 7 9 10 12 12 12 10 13 15 18 21 26 24 24 25 16 13 11 10 11 13 14 15 12 14 16 16 18 17
7 4 5 6 7 8 7 6 9 8 8 8 7 7 8 10 12 8 6 6 10 15 17 19 22 21 19 21 20 22 18 15 16 13 12 9 3 5 16 18 18 17 20
4 2 4 8 11 8 5 5 5 7 6 5 8 10 11 8 8 9 9 11 15 18 19 18 21 22 19 18 14 14 15 13 11 16 14 12 6 1 3 7 21 23 25
1 3 5 7 5 7 6 5 6 7 8 8 7 8 10 10 11 12 14 15 20 24 24 24 21 21 20 18 16 15 17 15 16 14 10 11 12 8 5 11 17 21 20
6 4 5 10 6 6 6 7 7 6 6 8 11 10 14 15 17 16 15 17 18 20 20 20 19 19 22 22 20 19 17 15 15 15 10 4 12 16 12 13 18 15 18
5 1 8 10 10 10 9 8 9 11 12 10 10 12 16 18 17 13 14 14 16 17 18 16 17 17 17 17 17 19 19 19 19 20 19 14 4 5 8 15 18 17 11
8 9 9 7 10 10 9 9 8 7 7 8 9 10 13 14 10 9 12 12 15 17 18 16 16 16 16 16 17 18 18 18 18 18 18 16 15 12 11 17 13 16 23
3 13 10 7 5 5 7 7 6 4 3 5 8 11 13 12 9 9 9 10 12 15 18 16 16 18 21 21 21 21 21 20 17 16 17 16 16 15 11 12 15 19 21
2 9 8 6 5 3 4 3 3 6 9 10 10 10 7 10 7 8 8 7 9 13 17 15 15 17 20 21 22 22 22 20 18 16 15 14 14 13 11 11 13 17 21
4 1 3 0 6 4 7 7 4 13 15 18 12 3 2 5 8 7 7 6 6 10 15 13 13 13 14 16 19 22 21 18 12 15 12 10 10 9 12 11 9 11 15
4 5 2 3 8 4 6 0 2 8 7 6 9 10 13 14 12 6 6 6 5 9 12 13 12 11 11 12 15 18 21 18 15 14 12 12 13 9 11 12 13 14 13
10 8 15 22 20 16 16 18 17 18 15 15 17 16 18 19 17 14 10 6 6 8 11 13 14 13 10 8 11 15 14 21 15 14 13 11 12 10 9 10 11 11 10
Wind_Direction
183 243 259 263 243 231 247 241 256 336 356 334 319 323 306 295 304 320 317 314 311 310 309 311 311 318 310 304 302 295 264 245 241 251 243 244 274 269 264 249 240 233 239
49 308 282 225 227 215 216 198 56 31 12 349 323 324 346 328 320 313 315 319 325 330 338 333 332 333 331 331 322 307 284 228 259 220 249 251 266 282 269 249 239 232 230
323 289 227 248 310 237 215 105 85 115 72 41 23 24 14 14 14 3 345 333 339 335 330 332 328 322 321 323 321 305 290 293 254 239 254 254 264 250 259 268 255 235 227
252 221 261 255 227 223 176 137 133 107 67 38 30 25 14 4 348 341 339 333 330 322 321 325 328 323 319 314 310 306 300 290 270 250 249 241 245 241 245 245 248 238 223
212 210 228 237 166 140 140 135 109 59 45 27 8 353 348 345 338 337 338 331 320 310 308 317 323 324 321 316 310 303 297 285 274 255 258 254 240 229 226 225 206 211 210
185 203 164 153 145 136 114 111 96 74 24 10 354 332 331 327 330 332 331 323 314 306 303 304 309 311 320 322 324 315 283 276 260 252 249 241 248 245 243 235 226 199 202
145 133 127 115 105 120 137 132 107 27 353 352 324 319 315 331 331 338 337 323 310 314 311 303 303 309 311 317 316 310 301 287 270 262 255 253 254 250 255 235 224 225 223
118 123 130 130 132 134 132 156 259 287 282 291 300 313 317 317 314 324 314 328 309 318 318 299 301 304 314 307 320 316 321 320 280 271 273 274 264 268 254 253 257 249 237
105 103 113 130 142 153 309 253 253 270 271 291 307 342 350 332 326 341 330 317 308 306 304 309 310 310 303 291 303 310 310 307 309 301 286 274 273 267 254 251 239 230 216
98 93 94 124 143 305 318 315 310 264 295 323 319 339 0 0 346 324 318 313 308 317 321 318 310 311 307 295 301 300 299 295 305 304 297 278 267 259 249 238 230 226 215
109 78 30 3 303 298 313 330 308 263 290 330 329 321 317 311 295 323 327 336 340 327 321 315 310 310 302 293 295 295 289 291 292 287 282 279 265 261 255 242 238 227 224
276 300 303 281 282 315 351 90 284 50 360 324 320 324 329 347 333 329 336 343 335 326 325 324 325 323 316 309 304 301 301 295 280 272 267 262 273 273 270 253 245 247 241
263 278 301 317 331 341 334 78 10 329 319 320 323 323 330 343 337 334 344 339 341 352 358 2 360 342 338 335 328 318 305 286 276 254 262 271 276 280 274 249 246 254 253
15 79 92 71 79 75 31 336 318 323 325 317 316 313 327 335 332 340 343 352 8 17 30 20 15 15 11 3 358 358 348 262 276 289 283 289 287 275 262 241 233 225 188
106 80 71 71 23 347 327 320 341 8 358 341 339 322 333 330 334 332 340 349 359 360 353 348 0 11 6 16 25 22 17 10 341 322 309 302 290 277 251 230 205 193 178
114 81 30 359 346 342 346 29 58 25 25 37 39 16 357 332 329 350 2 3 347 339 333 332 335 343 353 4 11 25 25 22 13 360 5 14 304 300 243 222 200 199 156
100 67 345 342 340 356 25 62 41 18 24 32 1 359 352 15 28 52 31 15 7 12 12 1 352 352 338 334 345 356 19 24 10 3 7 358 336 314 73 30 167 139 127
345 331 351 14 51 78 62 62 33 34 23 15 28 35 39 29 21 11 17 42 38 39 39 31 26 27 18 359 346 339 328 334 347 351 10 31 44 122 81 109 87 106 139
353 353 73 98 53 48 53 57 60 59 60 65 72 45 22 29 46 75 68 53 45 37 33 35 31 30 32 37 43 44 46 49 38 39 39 76 75 65 102 117 142 127 137
341 68 133 86 64 58 55 58 69 77 81 57 39 21 12 24 43 69 62 53 44 39 33 33 29 33 35 43 49 49 52 50 48 49 55 61 130 112 118 127 136 161 178
335 162 134 110 79 64 67 74 78 81 61 28 15 8 7 11 27 64 67 59 48 40 31 31 35 39 42 44 48 49 50 48 44 42 50 61 76 105 147 169 173 150 135
130 164 158 128 112 100 91 89 103 92 23 11 3 354 358 29 94 78 80 72 55 43 35 39 49 53 54 52 49 47 45 44 43 42 52 60 68 80 110 126 144 151 147
64 177 176 202 202 195 205 217 275 297 311 316 315 326 345 64 101 83 80 87 58 47 42 53 66 59 54 52 48 46 41 38 40 42 51 60 61 65 79 100 134 143 147
55 124 74 42 200 258 296 289 306 312 309 309 310 266 39 107 124 116 96 107 68 56 49 56 55 53 50 48 47 44 33 30 35 35 42 47 67 84 86 85 107 136 141
72 80 1 276 331 11 22 164 316 0 70 36 74 88 92 86 75 105 94 118 98 65 51 45 44 41 39 34 36 34 33 36 43 42 44 57 66 89 101 100 105 113 127
77 95 78 74 69 83 79 75 64 73 79 78 80 86 78 81 76 76 71 95 129 86 58 47 40 30 24 25 22 30 22 33 48 33 41 51 59 69 112 112 105 126 131